Wetterdaten: Woche 03.10.16 - 09.10.16 (KW40)
Datum Zeit Temp. Auen Feucht Auen Luftdruck Regen Richtung Windben
03.10.2016 00:00 10,1 C 95 % 1020,0 hPa 0,4 mm W-NW 0,0 km/h (0 Bft)
03.10.2016 01:00 10,1 C 95 % 1020,6 hPa 0,0 mm W-NW 0,0 km/h (0 Bft)
03.10.2016 02:00 9,9 C 95 % 1021,0 hPa 0,0 mm W-NW 0,0 km/h (0 Bft)
03.10.2016 03:00 9,3 C 95 % 1021,3 hPa 0,0 mm W-NW 0,0 km/h (0 Bft)
03.10.2016 04:00 8,9 C 95 % 1021,8 hPa 0,0 mm W-NW 0,0 km/h (0 Bft)
03.10.2016 05:00 8,8 C 95 % 1022,2 hPa 0,0 mm W-NW 0,0 km/h (0 Bft)
03.10.2016 06:00 8,8 C 95 % 1022,4 hPa 0,4 mm W-NW 0,3 km/h (0 Bft)
03.10.2016 07:00 8,8 C 95 % 1022,7 hPa 0,0 mm W-NW 1,5 km/h (1 Bft)
03.10.2016 08:00 9,2 C 95 % 1023,2 hPa 1,0 mm W-SW 3,9 km/h (1 Bft)
03.10.2016 09:00 9,1 C 94 % 1023,9 hPa 2,2 mm W 7,6 km/h (2 Bft)
03.10.2016 10:00 8,9 C 94 % 1024,5 hPa 1,2 mm W 13,6 km/h (3 Bft)
03.10.2016 11:00 9,3 C 93 % 1024,7 hPa 0,6 mm W 11,7 km/h (2 Bft)
03.10.2016 12:00 10,9 C 89 % 1024,6 hPa 0,0 mm W-SW 12,4 km/h (3 Bft)
03.10.2016 13:00 12,0 C 85 % 1024,3 hPa 0,0 mm W 10,7 km/h (2 Bft)
03.10.2016 14:00 11,9 C 85 % 1024,1 hPa 0,2 mm W 11,9 km/h (2 Bft)
03.10.2016 15:00 11,8 C 86 % 1024,0 hPa 0,2 mm W 7,6 km/h (2 Bft)
03.10.2016 16:00 11,4 C 89 % 1024,0 hPa 1,0 mm W 6,1 km/h (2 Bft)
03.10.2016 17:00 11,1 C 88 % 1024,1 hPa 0,0 mm W 3,2 km/h (1 Bft)
03.10.2016 18:00 10,2 C 92 % 1024,4 hPa 0,0 mm W-NW 5,2 km/h (1 Bft)
03.10.2016 19:00 9,7 C 92 % 1025,5 hPa 3,0 mm W 10,3 km/h (2 Bft)
03.10.2016 20:00 8,7 C 93 % 1026,2 hPa 4,2 mm W 7,8 km/h (2 Bft)
03.10.2016 21:00 8,4 C 94 % 1026,3 hPa 1,4 mm W 11,0 km/h (2 Bft)
03.10.2016 22:00 8,3 C 94 % 1026,2 hPa 1,2 mm W 8,0 km/h (2 Bft)
03.10.2016 23:00 8,2 C 94 % 1026,4 hPa 0,6 mm W 6,3 km/h (2 Bft)
04.10.2016 00:00 8,1 C 94 % 1026,3 hPa 0,0 mm W 5,3 km/h (1 Bft)
04.10.2016 01:00 8,2 C 94 % 1026,2 hPa 0,4 mm W-SW 6,0 km/h (2 Bft)
04.10.2016 02:00 8,4 C 94 % 1026,2 hPa 0,4 mm W 4,0 km/h (1 Bft)
04.10.2016 03:00 8,7 C 95 % 1026,2 hPa 0,0 mm W 6,5 km/h (2 Bft)
04.10.2016 04:00 8,6 C 94 % 1026,0 hPa 0,0 mm W 4,5 km/h (1 Bft)
04.10.2016 05:00 8,7 C 94 % 1026,1 hPa 0,0 mm W 7,6 km/h (2 Bft)
04.10.2016 06:00 8,6 C 94 % 1026,2 hPa 0,0 mm W 9,3 km/h (2 Bft)
04.10.2016 07:00 8,6 C 94 % 1026,3 hPa 0,0 mm W 9,1 km/h (2 Bft)
04.10.2016 08:00 8,7 C 93 % 1026,5 hPa 1,4 mm W 11,5 km/h (2 Bft)
04.10.2016 09:00 8,6 C 94 % 1026,7 hPa 2,4 mm W 13,8 km/h (3 Bft)
04.10.2016 10:00 8,6 C 94 % 1027,0 hPa 1,4 mm W 16,0 km/h (3 Bft)
04.10.2016 11:00 8,9 C 94 % 1027,3 hPa 2,0 mm W 14,8 km/h (3 Bft)
04.10.2016 12:00 9,2 C 94 % 1027,2 hPa 1,0 mm W 15,8 km/h (3 Bft)
04.10.2016 13:00 9,1 C 94 % 1027,3 hPa 2,2 mm W 12,8 km/h (3 Bft)
04.10.2016 14:00 9,3 C 94 % 1027,4 hPa 1,2 mm W 13,2 km/h (3 Bft)
04.10.2016 15:00 9,6 C 94 % 1027,4 hPa 0,6 mm W 10,7 km/h (2 Bft)
04.10.2016 16:00 9,6 C 94 % 1027,6 hPa 1,6 mm W-SW 8,7 km/h (2 Bft)
04.10.2016 17:00 9,3 C 95 % 1027,8 hPa 1,8 mm W 9,3 km/h (2 Bft)
04.10.2016 18:00 9,3 C 95 % 1028,4 hPa 2,0 mm W 5,9 km/h (2 Bft)
04.10.2016 19:00 9,1 C 95 % 1028,9 hPa 0,2 mm O-SO 3,7 km/h (1 Bft)
04.10.2016 20:00 8,8 C 94 % 1029,4 hPa 0,0 mm O-SO 2,8 km/h (1 Bft)
04.10.2016 21:00 8,6 C 94 % 1029,9 hPa 0,0 mm O-NO 0,3 km/h (0 Bft)
04.10.2016 22:00 8,3 C 94 % 1030,0 hPa 0,0 mm O-NO 0,9 km/h (0 Bft)
04.10.2016 23:00 8,0 C 95 % 1029,8 hPa 0,0 mm W-NW 0,8 km/h (0 Bft)
05.10.2016 00:00 7,3 C 94 % 1029,6 hPa 0,0 mm W-NW 0,4 km/h (0 Bft)
05.10.2016 01:00 6,7 C 94 % 1029,4 hPa 0,0 mm W-NW 1,5 km/h (1 Bft)
05.10.2016 02:00 5,9 C 95 % 1029,4 hPa 0,0 mm W-NW 0,8 km/h (0 Bft)
05.10.2016 03:00 5,8 C 95 % 1029,3 hPa 0,0 mm W-NW 0,0 km/h (0 Bft)
05.10.2016 04:00 5,1 C 95 % 1029,1 hPa 0,0 mm W-NW 0,0 km/h (0 Bft)
05.10.2016 05:00 3,4 C 95 % 1028,9 hPa 0,0 mm W-NW 0,0 km/h (0 Bft)
05.10.2016 06:00 3,3 C 95 % 1028,4 hPa 0,0 mm W-NW 1,5 km/h (1 Bft)
05.10.2016 07:00 2,8 C 95 % 1028,3 hPa 0,0 mm W 1,2 km/h (1 Bft)
05.10.2016 08:00 3,8 C 95 % 1028,5 hPa 0,0 mm W-NW 0,0 km/h (0 Bft)
05.10.2016 09:00 5,3 C 95 % 1028,3 hPa 0,0 mm W-NW 0,0 km/h (0 Bft)
05.10.2016 10:00 6,8 C 86 % 1028,2 hPa 0,0 mm SO 4,8 km/h (1 Bft)
05.10.2016 11:00 7,6 C 80 % 1028,1 hPa 0,0 mm SO 6,7 km/h (2 Bft)
05.10.2016 12:00 8,5 C 75 % 1027,8 hPa 0,0 mm W 6,3 km/h (2 Bft)
05.10.2016 13:00 8,8 C 70 % 1027,1 hPa 0,0 mm W 9,2 km/h (2 Bft)
05.10.2016 14:00 8,9 C 65 % 1026,2 hPa 0,0 mm W 10,8 km/h (2 Bft)
05.10.2016 15:00 8,9 C 63 % 1026,1 hPa 0,0 mm W-SW 9,8 km/h (2 Bft)
05.10.2016 16:00 8,4 C 66 % 1025,8 hPa 0,0 mm W 8,4 km/h (2 Bft)
05.10.2016 17:00 8,8 C 68 % 1025,5 hPa 0,0 mm W-NW 9,1 km/h (2 Bft)
05.10.2016 18:00 7,8 C 69 % 1025,3 hPa 0,0 mm W-SW 7,8 km/h (2 Bft)
05.10.2016 19:00 6,4 C 78 % 1025,4 hPa 0,0 mm W 4,1 km/h (1 Bft)
05.10.2016 20:00 6,3 C 82 % 1025,2 hPa 0,2 mm W 4,9 km/h (1 Bft)
05.10.2016 21:00 5,8 C 88 % 1024,7 hPa 0,0 mm W 6,3 km/h (2 Bft)
05.10.2016 22:00 5,5 C 89 % 1024,1 hPa 0,0 mm W 6,4 km/h (2 Bft)
05.10.2016 23:00 5,5 C 89 % 1023,4 hPa 0,0 mm W 6,4 km/h (2 Bft)
06.10.2016 00:00 5,6 C 89 % 1022,6 hPa 0,0 mm W 8,3 km/h (2 Bft)
06.10.2016 01:00 5,7 C 88 % 1021,9 hPa 0,0 mm W 7,9 km/h (2 Bft)
06.10.2016 02:00 5,7 C 87 % 1021,3 hPa 0,2 mm W 9,8 km/h (2 Bft)
06.10.2016 03:00 5,6 C 88 % 1020,6 hPa 0,0 mm W 9,0 km/h (2 Bft)
06.10.2016 04:00 5,6 C 88 % 1020,2 hPa 0,2 mm W 10,1 km/h (2 Bft)
06.10.2016 05:00 4,9 C 91 % 1020,0 hPa 0,6 mm W 12,1 km/h (2 Bft)
06.10.2016 06:00 4,6 C 93 % 1019,6 hPa 0,4 mm W 11,3 km/h (2 Bft)
06.10.2016 07:00 4,6 C 93 % 1019,4 hPa 1,0 mm W 7,9 km/h (2 Bft)
06.10.2016 08:00 4,5 C 94 % 1019,3 hPa 0,8 mm W 8,3 km/h (2 Bft)
06.10.2016 09:00 4,6 C 94 % 1019,1 hPa 0,6 mm W-SW 8,8 km/h (2 Bft)
06.10.2016 10:00 5,1 C 94 % 1019,0 hPa 0,0 mm W 8,6 km/h (2 Bft)
06.10.2016 11:00 5,9 C 93 % 1019,0 hPa 0,0 mm W 9,5 km/h (2 Bft)
06.10.2016 12:00 6,4 C 93 % 1019,1 hPa 0,6 mm W 8,4 km/h (2 Bft)
06.10.2016 13:00 6,9 C 93 % 1018,8 hPa 0,0 mm W 9,7 km/h (2 Bft)
06.10.2016 14:00 7,3 C 91 % 1018,5 hPa 0,0 mm W 9,1 km/h (2 Bft)
06.10.2016 15:00 7,6 C 91 % 1018,3 hPa 0,0 mm W 6,3 km/h (2 Bft)
06.10.2016 16:00 7,7 C 91 % 1017,9 hPa 0,0 mm W 7,8 km/h (2 Bft)
06.10.2016 17:00 7,5 C 91 % 1017,9 hPa 0,0 mm W 3,9 km/h (1 Bft)
06.10.2016 18:00 7,5 C 91 % 1017,9 hPa 0,0 mm W-NW 0,4 km/h (0 Bft)
06.10.2016 19:00 7,1 C 93 % 1017,9 hPa 0,0 mm W-NW 1,7 km/h (1 Bft)
06.10.2016 20:00 6,9 C 94 % 1018,0 hPa 0,0 mm W-NW 2,0 km/h (1 Bft)
06.10.2016 21:00 6,8 C 94 % 1018,1 hPa 0,0 mm W-NW 0,7 km/h (0 Bft)
06.10.2016 22:00 6,9 C 94 % 1018,0 hPa 0,0 mm W-NW 1,1 km/h (0 Bft)
06.10.2016 23:00 6,7 C 94 % 1017,8 hPa 0,0 mm W-NW 0,7 km/h (0 Bft)
07.10.2016 00:00 6,7 C 94 % 1017,6 hPa 0,0 mm W-NW 0,1 km/h (0 Bft)
07.10.2016 01:00 6,7 C 94 % 1017,3 hPa 0,0 mm W-NW 0,9 km/h (0 Bft)
07.10.2016 02:00 6,6 C 94 % 1017,2 hPa 0,0 mm W-NW 1,7 km/h (1 Bft)
07.10.2016 03:00 6,7 C 94 % 1016,8 hPa 0,0 mm W-NW 1,9 km/h (1 Bft)
07.10.2016 04:00 6,8 C 94 % 1016,5 hPa 0,0 mm W-NW 0,9 km/h (0 Bft)
07.10.2016 05:00 6,8 C 94 % 1016,4 hPa 0,0 mm W-NW 1,3 km/h (1 Bft)
07.10.2016 06:00 6,8 C 94 % 1016,5 hPa 0,2 mm W-NW 0,3 km/h (0 Bft)
07.10.2016 07:00 6,7 C 94 % 1016,7 hPa 0,2 mm W-NW 0,1 km/h (0 Bft)
07.10.2016 08:00 6,8 C 94 % 1016,9 hPa 0,4 mm W-NW 0,7 km/h (0 Bft)
07.10.2016 09:00 7,3 C 95 % 1017,1 hPa 0,2 mm W-NW 0,0 km/h (0 Bft)
07.10.2016 10:00 7,8 C 94 % 1017,1 hPa 0,0 mm W 1,9 km/h (1 Bft)
07.10.2016 11:00 8,0 C 93 % 1017,3 hPa 0,0 mm W-SW 3,3 km/h (1 Bft)
07.10.2016 12:00 7,8 C 94 % 1017,4 hPa 0,6 mm W-SW 3,2 km/h (1 Bft)
07.10.2016 13:00 8,1 C 95 % 1017,4 hPa 0,0 mm W-SW 2,9 km/h (1 Bft)
07.10.2016 14:00 8,5 C 94 % 1017,4 hPa 0,2 mm W 4,3 km/h (1 Bft)
07.10.2016 15:00 8,7 C 94 % 1017,3 hPa 0,2 mm W 3,2 km/h (1 Bft)
07.10.2016 16:00 8,7 C 94 % 1017,6 hPa 1,0 mm W 3,6 km/h (1 Bft)
07.10.2016 17:00 8,4 C 94 % 1017,8 hPa 0,2 mm W 0,7 km/h (0 Bft)
07.10.2016 18:00 8,4 C 94 % 1018,2 hPa 0,0 mm W 0,0 km/h (0 Bft)
07.10.2016 19:00 8,0 C 94 % 1018,4 hPa 0,0 mm W 0,0 km/h (0 Bft)
07.10.2016 20:00 7,7 C 94 % 1018,4 hPa 0,0 mm W 0,0 km/h (0 Bft)
07.10.2016 21:00 7,3 C 94 % 1018,5 hPa 0,0 mm W 0,8 km/h (0 Bft)
07.10.2016 22:00 7,1 C 94 % 1018,8 hPa 0,0 mm W 0,3 km/h (0 Bft)
07.10.2016 23:00 7,1 C 94 % 1018,8 hPa 0,0 mm W 0,0 km/h (0 Bft)
08.10.2016 00:00 7,0 C 94 % 1018,7 hPa 0,0 mm W 0,1 km/h (0 Bft)
08.10.2016 01:00 6,9 C 95 % 1018,8 hPa 0,0 mm W 0,0 km/h (0 Bft)
08.10.2016 02:00 6,9 C 95 % 1018,7 hPa 0,0 mm W 0,0 km/h (0 Bft)
08.10.2016 03:00 6,8 C 95 % 1018,5 hPa 0,0 mm W 0,0 km/h (0 Bft)
08.10.2016 04:00 6,7 C 95 % 1018,0 hPa 0,0 mm W 0,0 km/h (0 Bft)
08.10.2016 05:00 6,5 C 95 % 1017,8 hPa 0,0 mm W 0,7 km/h (0 Bft)
08.10.2016 06:00 6,5 C 95 % 1017,8 hPa 0,0 mm W 0,5 km/h (0 Bft)
08.10.2016 07:00 6,4 C 95 % 1018,0 hPa 0,0 mm W 1,2 km/h (1 Bft)
08.10.2016 08:00 6,6 C 95 % 1018,4 hPa 0,0 mm W 0,9 km/h (0 Bft)
08.10.2016 09:00 7,3 C 95 % 1018,6 hPa 0,0 mm W 1,9 km/h (1 Bft)
08.10.2016 10:00 8,3 C 94 % 1019,0 hPa 0,0 mm W 3,9 km/h (1 Bft)
08.10.2016 11:00 8,9 C 92 % 1019,2 hPa 0,0 mm W 7,5 km/h (2 Bft)
08.10.2016 12:00 9,4 C 88 % 1019,5 hPa 0,0 mm W 8,3 km/h (2 Bft)
08.10.2016 13:00 9,9 C 84 % 1019,6 hPa 0,0 mm W 8,4 km/h (2 Bft)
08.10.2016 14:00 9,6 C 83 % 1019,8 hPa 0,0 mm W 8,7 km/h (2 Bft)
08.10.2016 15:00 9,2 C 86 % 1020,0 hPa 0,0 mm W 6,3 km/h (2 Bft)
08.10.2016 16:00 8,2 C 85 % 1020,4 hPa 0,0 mm W 6,7 km/h (2 Bft)
08.10.2016 17:00 7,6 C 90 % 1020,9 hPa 0,2 mm W-SW 4,5 km/h (1 Bft)
08.10.2016 18:00 7,3 C 91 % 1021,6 hPa 1,0 mm W-SW 2,3 km/h (1 Bft)
08.10.2016 19:00 6,9 C 92 % 1022,1 hPa 0,4 mm W 2,5 km/h (1 Bft)
08.10.2016 20:00 6,7 C 92 % 1022,6 hPa 0,4 mm W 2,5 km/h (1 Bft)
08.10.2016 21:00 6,2 C 93 % 1022,7 hPa 0,0 mm W-NW 1,7 km/h (1 Bft)
08.10.2016 22:00 6,0 C 93 % 1023,1 hPa 0,2 mm W-NW 1,3 km/h (1 Bft)
08.10.2016 23:00 6,0 C 94 % 1023,1 hPa 0,2 mm W-NW 1,3 km/h (1 Bft)
09.10.2016 00:00 6,0 C 94 % 1022,8 hPa 0,0 mm W-NW 1,6 km/h (1 Bft)
09.10.2016 01:00 5,8 C 94 % 1022,8 hPa 0,0 mm W-NW 0,7 km/h (0 Bft)
09.10.2016 02:00 5,5 C 94 % 1022,9 hPa 0,0 mm W-NW 0,0 km/h (0 Bft)
09.10.2016 03:00 5,2 C 94 % 1022,9 hPa 0,0 mm W-NW 0,0 km/h (0 Bft)
09.10.2016 04:00 5,3 C 94 % 1022,9 hPa 0,4 mm W-NW 0,0 km/h (0 Bft)
09.10.2016 05:00 5,6 C 95 % 1022,8 hPa 0,0 mm W-NW 0,0 km/h (0 Bft)
09.10.2016 06:00 5,5 C 95 % 1022,7 hPa 0,0 mm W-NW 0,3 km/h (0 Bft)
09.10.2016 07:00 5,3 C 95 % 1023,0 hPa 0,0 mm W-NW 1,2 km/h (1 Bft)
09.10.2016 08:00 5,8 C 95 % 1023,2 hPa 0,0 mm W-NW 3,1 km/h (1 Bft)
09.10.2016 09:00 8,1 C 90 % 1023,3 hPa 0,0 mm W-SW 2,8 km/h (1 Bft)
09.10.2016 10:00 7,7 C 89 % 1023,2 hPa 0,2 mm NO 4,4 km/h (1 Bft)
09.10.2016 11:00 9,3 C 84 % 1023,1 hPa 0,0 mm SO 4,3 km/h (1 Bft)
09.10.2016 12:00 10,2 C 78 % 1023,0 hPa 0,0 mm O 6,8 km/h (2 Bft)
09.10.2016 13:00 9,8 C 75 % 1022,7 hPa 0,0 mm S-SO 6,3 km/h (2 Bft)
09.10.2016 14:00 10,2 C 72 % 1022,3 hPa 0,0 mm S-SO 8,3 km/h (2 Bft)
09.10.2016 15:00 10,4 C 72 % 1022,0 hPa 0,0 mm S-SO 7,6 km/h (2 Bft)
09.10.2016 16:00 9,9 C 75 % 1021,8 hPa 0,0 mm SO 6,7 km/h (2 Bft)
09.10.2016 17:00 8,8 C 80 % 1021,8 hPa 0,0 mm O-SO 2,9 km/h (1 Bft)
09.10.2016 18:00 6,8 C 88 % 1022,1 hPa 0,0 mm O-SO 0,0 km/h (0 Bft)
09.10.2016 19:00 5,8 C 92 % 1022,7 hPa 0,0 mm SO 0,4 km/h (0 Bft)
09.10.2016 20:00 4,9 C 94 % 1023,2 hPa 0,0 mm S-SW 0,7 km/h (0 Bft)
09.10.2016 21:00 5,3 C 94 % 1023,5 hPa 0,0 mm S-SW 0,5 km/h (0 Bft)
09.10.2016 22:00 5,1 C 94 % 1023,6 hPa 0,0 mm S-SW 0,3 km/h (0 Bft)
09.10.2016 23:00 4,9 C 94 % 1023,8 hPa 0,0 mm S-SW 0,7 km/h (0 Bft)
Min-Datum _ 05.10.16 05.10.16 07.10.16 - - 03.10.16
_ Min-Zeit 07:45 15:10 04:20 - - 00:00
Minimum _ 2,4 C 58 % 1016,4 hPa - - 0,0 km/h (0 Bft)
Max-Datum _ 03.10.16 03.10.16 04.10.16 03.10.16 - 03.10.16
_ Max-Zeit 13:45 00:15 21:40 20:00 - 18:50
Maximum _ 12,8 C 95 % 1030,0 hPa 4,2 mm - 24,1 km/h
W-NW (4 Bft)
Durchschnitt _ 7,6 C 91 % 1022,5 hPa #47,0 mm W 4,6 km/h (1 Bft)